Location: Kalberh�ni
(46.4610°N, 7.2453°E)
Time: 06:24:03
(UTC+00:00)

Cosmos 2322 Rocket - Pass Details

Date: 20 June 2021
Orbit: 833 x 850 km, 71.0° (Epoch: 28 July)

Event Time Altitude Azimuth Distance (km) Brightness Sun altitude
Rises 20:43:37 0° 227° (SW) 3,403 5.3 -10.3°
Reaches altitude 10° 20:46:12 10° 235° (SW) 2,473 4.7 -10.6°
Maximum altitude 20:51:33 41° 305° (NW) 1,210 3.6 -11.2°
Drops below altitude 10° 20:56:57 10° 16° (NNE) 2,487 5.2 -11.7°
Sets 20:59:34 0° 23° (NNE) 3,425 5.8 -12.0°
